Location: Skalnate Pleso
(49.1889°N, 20.2450°E)
Time: 17:41:37
(UTC+01:00)

Gbstr 26 Del rocket - Pass Details

Date: 19 November 2019
Orbit: 493 x 1264 km, 51.8° (Epoch: 08 December)

Event Time Altitude Azimuth Distance (km) Brightness Sun altitude
Exits shadow 05:00:32 49° 284° (WNW) 650 2.7 -18.4°
Maximum altitude 05:01:23 69° 347° (NNW) 536 2.6 -18.2°
Drops below altitude 10° 05:05:06 10° 71° (ENE) 1,695 6.2 -17.6°
Sets 05:07:18 0° 74° (ENE) 2,604 7.5 -17.3°
